CANX-2

Last updated on Thu Oct 23 2025 00:03:57 GMT+0000 (Coordinated Universal Time)

1 32790U 08021H 25295.45155000 .00006692 00000+0 50039-3 0 9997 2 32790 97.8385 266.4432 0013115 120.0262 240.2266 15.03042864949067
UTC large
Height (km)
Speed (km/s)
/
Latitude / Longitude
Inclination (degrees)
Orbital Period (minutes)
Azimuth
Elevation
Range (km)
Doppler Factor

Next 0 passes for location: London (51.5072 / 0.1276)

Sorry there are no passes over London.